sat.trackr.live / text

‹ back to catalog

STARLINK-4773

NORAD 53838 · 2022-114W

PAYLOAD ACTIVE UNKNOWN

§ Identity

Operator
Country
US
Launch date
2022-09-19
Launch site
AFETR
Launch vehicle
Mass (kg)
RCS (m²)

Purposes: comms

External: N2YO · Heavens-Above · Gunter

§ Orbital elements

Epoch: 2026-05-25T03:50:14.578080Z

Period
95.44 min
Inclination
53.2121°
Eccentricity
0.0001535
Mean motion
15.08835918 rev/d
Perigee alt
538.7 km
Apogee alt
540.8 km
Semi-major
6,917.9 km
B*
3.3834e-5
RAAN
310.9992°
Arg perigee
98.5659°
Mean anomaly
261.5507°
Rev number
20,451

§ Raw data

STARLINK-47731 53838U 22114W   26145.15989095  .00000250  00000+0  33834-4 0  99922 53838  53.2121 310.9992 0001535  98.5659 261.5507 15.08835918204518

JSON: /api/v1/satellites/53838 · /tle

For live sub-satellite position, see the globe view (requires WebGL).

§ Visibility from observer

Set your observer location to see the next 7 days of passes ≥ 10°. The values pass through the URL so the page stays shareable.

No JS? Fill the form by hand. The geolocation button needs JavaScript.